This is the latest recevied weather packets stored in our database for station/object VA3BOO. If no packets are shown the sender has not sent any weather packets the latest 10 day(s).
| Time | Temp. | Humidity | Pressure | Rain* | Wind** | Luminosity | Snow |
|---|---|---|---|---|---|---|---|
| 1777314305 | 22.78° C | 27% | 1023.2 hPa | 0 mm | - | 772 W/m² | - |
| 1777314005 | 22.78° C | 26% | 1023.2 hPa | 0 mm | - | 778 W/m² | - |
| 1777313705 | 22.22° C | 28% | 1023.1 hPa | 0 mm | - | 782 W/m² | - |
| 1777313405 | 22.22° C | 27% | 1023.2 hPa | 0 mm | - | 438 W/m² | - |
| 1777313105 | 22.22° C | 27% | 1023.2 hPa | 0 mm | - | 75 W/m² | - |
| 1777312805 | 21.67° C | 29% | 1023.2 hPa | 0 mm | - | 64 W/m² | - |
| 1777312505 | 21.11° C | 29% | 1023.4 hPa | 0 mm | - | 65 W/m² | - |
| 1777312204 | 21.11° C | 29% | 1023.4 hPa | 0 mm | - | 775 W/m² | - |
| 1777311905 | 21.11° C | 29% | 1023.5 hPa | 0 mm | - | 805 W/m² | - |
| 1777311604 | 21.11° C | 31% | 1023.5 hPa | 0 mm | - | 199 W/m² | - |
| 1777311305 | 20.56° C | 29% | 1023.4 hPa | 0 mm | - | 810 W/m² | - |
| 1777311005 | 20° C | 30% | 1023.6 hPa | 0 mm | - | 812 W/m² | - |
| 1777310705 | 20.56° C | 31% | 1023.5 hPa | 0 mm | - | 813 W/m² | - |
| 1777310404 | 21.67° C | 33% | 1023.7 hPa | 0 mm | - | 812 W/m² | - |
| 1777310105 | 21.67° C | 32% | 1023.7 hPa | 0 mm | - | 810 W/m² | - |
| 1777309805 | 21.67° C | 34% | 1023.8 hPa | 0 mm | - | 813 W/m² | - |
| 1777309505 | 21.11° C | 32% | 1023.8 hPa | 0 mm | - | 808 W/m² | - |
| 1777309204 | 20.56° C | 31% | 1023.8 hPa | 0 mm | - | 807 W/m² | - |
| 1777308905 | 21.67° C | 30% | 1023.7 hPa | 0 mm | - | 804 W/m² | - |
| 1777308604 | 21.11° C | 32% | 1023.8 hPa | 0 mm | - | 800 W/m² | - |
| 1777308304 | 21.11° C | 31% | 1023.9 hPa | 0 mm | - | 797 W/m² | - |
| 1777308005 | 21.67° C | 30% | 1024 hPa | 0 mm | - | 794 W/m² | - |
| 1777307705 | 21.11° C | 30% | 1024.2 hPa | 0 mm | - | 790 W/m² | - |
| 1777307405 | 21.11° C | 30% | 1024 hPa | 0 mm | - | 785 W/m² | - |
| 1777307105 | 20° C | 30% | 1024.2 hPa | 0 mm | - | 781 W/m² | - |
* Rain latest hour (hover to see other rain measurements)
** Current wind speed in m/s (hover to see current wind gust speed)